Location: Cucq
(50.4773°N, 1.6202°E)
Time: 21:50:51
(UTC+00:00)

Cosmos 1538 Rocket - Pass Details

Date: 07 August 2020
Orbit: 752 x 792 km, 74.0° (Epoch: 21 September)

Event Time Altitude Azimuth Distance (km) Brightness Sun altitude
Rises 01:26:26 0° 334° (NNW) 3,217 7.8 -20.5°
Reaches altitude 10° 01:28:48 10° 332° (NNW) 2,287 7.0 -20.4°
Maximum altitude 01:33:57 71° 250° (WSW) 797 3.9 -20.0°
Enters shadow 01:35:58 37° 176° (S) 1,158 4.5 -19.9°
